This is the latest recevied weather packets stored in our database for station/object OK1PNK-5. If no packets are shown the sender has not sent any weather packets the latest 10 day(s).
| Time | Temp. | Humidity | Pressure | Rain* | Wind** | Luminosity | Snow |
|---|---|---|---|---|---|---|---|
| 1777771343 | 17.78° C | 32% | 976.4 hPa | 0 mm | - | - | - |
| 1777769543 | 17.78° C | 32% | 976.4 hPa | 0 mm | - | - | - |
| 1777768343 | 17.78° C | 32% | 976.4 hPa | 0 mm | - | - | - |
| 1777767743 | 17.78° C | 32% | 976.4 hPa | 0 mm | - | - | - |
| 1777767143 | 17.78° C | 32% | 976.4 hPa | 0 mm | - | - | - |
| 1777766543 | 17.78° C | 32% | 976.4 hPa | 0 mm | - | - | - |
| 1777765343 | 17.78° C | 32% | 976.4 hPa | 0 mm | - | - | - |
| 1777764743 | 17.78° C | 32% | 976.4 hPa | 0 mm | - | - | - |
| 1777764143 | 17.78° C | 32% | 976.4 hPa | 0 mm | - | - | - |
| 1777763543 | 17.78° C | 32% | 976.4 hPa | 0 mm | - | - | - |
| 1777761143 | 17.78° C | 32% | 976.4 hPa | 0 mm | - | - | - |
| 1777760543 | 17.78° C | 32% | 976.4 hPa | 0 mm | - | - | - |
| 1777759943 | 17.78° C | 32% | 976.4 hPa | 0 mm | - | - | - |
| 1777759343 | 17.78° C | 32% | 976.4 hPa | 0 mm | - | - | - |
| 1777758743 | 17.78° C | 32% | 976.4 hPa | 0 mm | - | - | - |
| 1777757543 | 17.78° C | 32% | 976.4 hPa | 0 mm | - | - | - |
| 1777756943 | 17.78° C | 32% | 976.4 hPa | 0 mm | - | - | - |
| 1777753943 | 18.33° C | 31% | 976.4 hPa | 0 mm | - | - | - |
| 1777752143 | 19.44° C | 32% | 976.4 hPa | 0 mm | - | - | - |
| 1777744945 | 23.89° C | 24% | 976.2 hPa | 0 mm | - | - | - |
| 1777744343 | 24.44° C | 23% | 976.2 hPa | 0 mm | - | - | - |
| 1777737743 | 25.56° C | 19% | 976.9 hPa | 0 mm | - | - | - |
| 1777737143 | 26.11° C | 19% | 977.1 hPa | 0 mm | - | - | - |
| 1777735943 | 26.11° C | 19% | 977.2 hPa | 0 mm | - | - | - |
| 1777735343 | 26.11° C | 20% | 977.5 hPa | 0 mm | - | - | - |
* Rain latest hour (hover to see other rain measurements)
** Current wind speed in m/s (hover to see current wind gust speed)